Weather History for KMEI - October, 2013

Change the Weather History Date:

Thursday, October 31, 2013

  Actual Average Record
Temperature  
Mean Temperature 71 °F 59 °F  
Max Temperature 74 °F 73 °F 87 °F (1950)
Min Temperature 67 °F 46 °F 28 °F (1993)
Degree Days  
Heating Degree Days 0 7  
Month to date heating degree days 88 117  
Since 1 July heating degree days 88 124  
Cooling Degree Days 6 1  
Month to date cooling degree days 116 90  
Year to date cooling degree days 2036 2013  
Growing Degree Days 20 (Base 50)    
Moisture  
Dew Point 67 °F    
Average Humidity 88    
Maximum Humidity 97    
Minimum Humidity 79    
Precipitation  
Precipitation 0.40 in 0.13 in 2.38 in (1979)
Month to date precipitation 2.90 3.76  
Year to date precipitation 55.15 46.15  
Sea Level Pressure  
Sea Level Pressure 29.90 in    
Wind  
Wind Speed 11 mph (South)    
Max Wind Speed 24 mph    
Max Gust Speed 32 mph    
Visibility 9 miles    
Events Rain    
T = Trace of Precipitation, MM = Missing Value Source: NWS Daily Summary

Daily Weather History Graph

Daily Weather History Graph

Search for Another Location

Airport or City:

Trip Planner

Search our weather history database for the weather conditions in past years. The results will help you decide how hot, cold, wet, or windy it might be!

Date:

Astronomy

Oct. 31, 2013 Rise Set
Actual Time 7:11 AM CDT 6:05 PM CDT
Civil Twilight 6:46 AM CDT 6:30 PM CDT
Nautical Twilight 6:17 AM CDT 6:59 PM CDT
Astronomical Twilight 5:48 AM CDT 7:28 PM CDT
Moon 4:10 AM CDT (10/31) 4:15 PM CDT (10/31)
Length of Visible Light 11h 44m
Length of Day
10h 53m
Waning Crescent, 10% of the Moon is Illuminated
Oct 31
Waning Crescent
Nov 3
New
Nov 9
First Quarter
Nov 17
Full
Nov 25
Last Quarter

Hourly Weather History & Observations

Time (CDT) Temp. Dew Point Humidity Pressure Visibility Wind Dir Wind Speed Gust Speed Precip Events Conditions
12:58 AM 68.0 °F 64.9 °F 90% 30.05 in 10.0 mi South 9.2 mph - N/A   Scattered Clouds
1:58 AM 68.0 °F 64.9 °F 90% 30.03 in 10.0 mi South 8.1 mph - N/A   Clear
2:58 AM 68.0 °F 64.9 °F 90% 30.01 in 10.0 mi SSE 6.9 mph - N/A   Partly Cloudy
3:58 AM 66.9 °F 64.9 °F 93% 29.99 in 10.0 mi South 9.2 mph - N/A   Scattered Clouds
4:17 AM 66.2 °F 64.4 °F 94% 29.99 in 10.0 mi South 8.1 mph - N/A   Mostly Cloudy
4:26 AM 66.2 °F 64.4 °F 94% 29.99 in 10.0 mi South 8.1 mph - N/A   Mostly Cloudy
4:58 AM 68.0 °F 66.0 °F 93% 29.97 in 10.0 mi South 10.4 mph - N/A   Mostly Cloudy
5:11 AM 68.0 °F 66.2 °F 94% 29.98 in 10.0 mi South 11.5 mph 19.6 mph N/A   Overcast
5:58 AM 68.0 °F 66.0 °F 93% 29.97 in 10.0 mi South 11.5 mph - N/A   Overcast
6:31 AM 68.0 °F 66.2 °F 94% 29.96 in 10.0 mi South 9.2 mph - N/A   Overcast
6:58 AM 69.1 °F 66.0 °F 90% 29.95 in 10.0 mi SSE 10.4 mph - N/A   Overcast
7:33 AM 69.8 °F 66.2 °F 88% 29.94 in 9.0 mi South 8.1 mph 18.4 mph N/A   Overcast
7:58 AM 69.1 °F 66.9 °F 93% 29.93 in 9.0 mi SSE 10.4 mph - N/A   Overcast
8:58 AM 70.0 °F 66.9 °F 90% 29.94 in 10.0 mi South 12.7 mph 23.0 mph N/A   Overcast
9:15 AM 71.6 °F 66.2 °F 83% 29.95 in 10.0 mi South 12.7 mph 20.7 mph N/A   Overcast
9:58 AM 71.1 °F 68.0 °F 90% 29.94 in 10.0 mi South 11.5 mph - N/A   Overcast
10:08 AM 71.6 °F 68.0 °F 88% 29.95 in 10.0 mi South 12.7 mph - N/A   Overcast
10:58 AM 73.0 °F 66.9 °F 81% 29.93 in 10.0 mi South 15.0 mph 26.5 mph N/A   Overcast
11:49 AM 73.4 °F 68.0 °F 83% 29.95 in 10.0 mi South 15.0 mph 20.7 mph N/A   Overcast
11:58 AM 73.9 °F 68.0 °F 82% 29.94 in 10.0 mi South 11.5 mph 21.9 mph N/A   Overcast
12:58 PM 73.9 °F 66.9 °F 79% 29.88 in 10.0 mi South 12.7 mph - N/A   Partly Cloudy
1:58 PM 73.9 °F 66.9 °F 79% 29.84 in 10.0 mi South 17.3 mph 23.0 mph N/A   Clear
2:58 PM 73.9 °F 66.0 °F 76% 29.83 in 10.0 mi South 12.7 mph 19.6 mph N/A   Partly Cloudy
3:58 PM 73.0 °F 66.0 °F 79% 29.83 in 10.0 mi South 11.5 mph - 0.00 in Rain Light Rain
4:58 PM 70.0 °F 66.9 °F 90% 29.82 in 7.0 mi South 9.2 mph - 0.02 in Rain Light Rain
5:58 PM 69.1 °F 68.0 °F 96% 29.81 in 5.0 mi SSE 4.6 mph - 0.06 in Rain Rain
6:58 PM 70.0 °F 66.9 °F 90% 29.78 in 6.0 mi SSE 18.4 mph 23.0 mph 0.10 in Rain Light Rain
7:33 PM 69.8 °F 68.0 °F 94% 29.83 in 4.0 mi WSW 11.5 mph 29.9 mph 0.10 in Rain Heavy Rain
7:47 PM 69.8 °F 68.0 °F 94% 29.82 in 5.0 mi SSW 9.2 mph - 0.16 in Rain Rain
7:58 PM 69.1 °F 68.0 °F 96% 29.81 in 5.0 mi South 9.2 mph - 0.19 in Rain Rain
8:37 PM 69.8 °F 68.0 °F 94% 29.80 in 9.0 mi South 11.5 mph - 0.02 in Rain Light Rain
8:58 PM 69.1 °F 68.0 °F 96% 29.80 in 10.0 mi South 11.5 mph - 0.03 in Rain Light Rain
9:13 PM 69.8 °F 68.0 °F 94% 29.79 in 10.0 mi South 11.5 mph - 0.00 in   Overcast
9:38 PM 69.8 °F 68.0 °F 94% 29.81 in 10.0 mi SSW 9.2 mph - 0.00 in   Overcast
9:50 PM 69.8 °F 66.2 °F 88% 29.81 in 10.0 mi SSW 11.5 mph - 0.00 in   Overcast
9:58 PM 69.1 °F 66.9 °F 93% 29.81 in 10.0 mi SW 11.5 mph - 0.00 in   Overcast
10:58 PM 69.1 °F 66.9 °F 93% 29.83 in 9.0 mi SW 12.7 mph - 0.00 in Rain Light Rain
11:32 PM 68.0 °F 66.2 °F 94% 29.84 in 10.0 mi SW 6.9 mph - 0.00 in Rain Light Rain
11:58 PM 68.0 °F 66.9 °F 96% 29.83 in 10.0 mi SW 9.2 mph - 0.00 in   Overcast